Location: Go?cza
(50.3372°N, 19.9313°E)
Time: 22:18:12
(UTC+00:00)

CZ-2C R/B - Pass Details

Date: 13 August 2024
Orbit: 665 x 777 km, 98.4° (Epoch: 16 September)

Event Time Altitude Azimuth Distance (km) Brightness Sun altitude
Rises 01:14:24 0° 25° (NNE) 3,270 7.3 -17.3°
Reaches altitude 10° 01:17:16 10° 40° (NE) 2,340 6.3 -17.0°
Maximum altitude 01:21:13 22° 90° (E) 1,659 4.7 -16.6°
Drops below altitude 10° 01:25:09 10° 141° (SE) 2,317 4.9 -16.2°
Sets 01:27:57 0° 156° (SSE) 3,228 5.5 -16.0°
